COSMOS 1823 DEB

Satellite information

Favourite Embed

Satellite Type and Status

DEBRISIN ORBIT

Key statistics

Satellite COSMOS 1823 DEB at a glance.

Uptime

14132

Days in orbit

Revolutions

≈ 12.4

Per day

Orbit

LEO

Low Earth Orbit

Inclination

73.7

Latest

Satellite identification and parameters

Extended collection of information and parameters for COSMOS 1823 DEB.

Object identification

Identified? True

Debris? True

Object name: COSMOS 1823 DEB

International designator: 1987-020EB

Object number (NORAD): 29360

Object ID (CCSDS): 29360

Country: COMMONWEALTH OF INDEPENDENT STATES (CIS)

Current information (Y/N): Y

RCS size: SMALL

Orbital parameters

Period: 116.17 minutes

Inclination: 73.7076 deg

SMA: 7886.577 km

Apoapsis: 1558.364 km

Periapsis: 1458.52 km

RAAN: 207.5508 deg

Eccentricy: 0.00633

Argument of periapsis: 188.0989 deg

Mean anomaly: 200.4265 deg

Mean motion: 12.39566772 rev/day

Mean motion (dot): 0.00000087 rev/day2

B* drag term: 0.00077607622 1/REarth

Two-line elements (TLE)

Creation date: Oct. 28, 2025, 2:18 a.m.

Reference frame: TEME

Reference center: EARTH

Epoch: Oct. 27, 2025, 5:46 p.m. UTC

TLE line 0: 0 COSMOS 1823 DEB

TLE line 1: 1 29360U 87020EB 25300.74071828 .00000087 00000-0 77608-3 0 9990

TLE line 2: 2 29360 73.7076 207.5508 0063300 188.0989 200.4265 12.39566772116447

Live tracking on map

Real-time ground track for satellite COSMOS 1823 DEB.

In-orbit conjunctions

A list of the most updated potential collisions computed for object COSMOS 1823 DEB.

Target Orbit TCA Probability of collision Miss distance Type
COSMOS 1796 LEO 2025-08-09 05:27:19 0.0005985081 289.0 (m) PAYLOAD
COSMOS 1254 LEO 2025-04-06 19:44:32 0.0001212021 598.0 (m) PAYLOAD

Associated space launch

A satellite for the GEO-IK geodetic system

COSMOS 1823 DEB was lifted into orbit during the mission ‘Tsiklon-3 | Geo-IK 9’, on board a Tsiklon-3 space rocket.

The launch took place on Feb. 20, 1987, 4:43 a.m. from 32/2.

For more information about the launch, click the button.

Launch to space Tsiklon-3 | Geo-IK 9
Tsiklon-3 | Geo-IK 9

Agency: N/A

Status: Launch Successful

Launch date: Feb. 20, 1987, 4:43 a.m. UTC

Rocket: Tsiklon-3

Launch pad: 32/2

Location: Plesetsk Cosmodrome, Russian Federation

...

Latest news about this satellite

There are no fresh news available about this satellite. Check back as we update our databases every day.


Newsletter sign-up

Weekly statistics, charts and insights to help you stay on top of the space industry.